Waarnemingen

Advertentie
Mijn weer
Konstanz, Duitsland (10929): temperatuur & dauwpunt: 18.01.2018 06:00:00 - 24.01.2018 06:00:00 (CET)Konstanz, Duitsland (10929): temperatuur 5cm & temperatuur -5cm: 18.01.2018 06:00:00 - 24.01.2018 06:00:00 (CET)Konstanz, Duitsland (10929): temperatuur -20cm & temperatuur -100cm: 18.01.2018 06:00:00 - 24.01.2018 06:00:00 (CET)Konstanz, Duitsland (10929): windsnelheid & windstoten: 18.01.2018 06:00:00 - 24.01.2018 06:00:00 (CET)Konstanz, Duitsland (10929): windrichting: 18.01.2018 06:00:00 - 24.01.2018 06:00:00 (CET)Konstanz, Duitsland (10929): luchtdruk: 18.01.2018 06:00:00 - 24.01.2018 06:00:00 (CET)Konstanz, Duitsland (10929): zicht: 18.01.2018 06:00:00 - 24.01.2018 06:00:00 (CET)Konstanz, Duitsland (10929): Zonneschijnduur: 18.01.2018 06:00:00 - 24.01.2018 06:00:00 (CET)Konstanz, Duitsland (10929): neerslag: 18.01.2018 06:00:00 - 24.01.2018 06:00:00 (CET)
Datum & Tijd tt [°C] td [°C] tt 5cm [°C] tt -5cm [°C] tt -20cm [°C] tt -100cm [°C] ff [km/u] ff [kn] fx [km/u] fx [kn] dd ppp [hPa] vv [km] sd [min] rr [mm]
24.01.2018 06:00:00 4,1 2,8 3,8 3,8 4,5 6,2 5 3 10 5 NNO 1028,9 14 0 0,0
24.01.2018 05:00:00 4,3 2,8 3,8 3,8 4,4 6,2 5 3 10 5 ONO 1028,9 48 0 0,0
24.01.2018 04:00:00 4,3 3,2 3,9 3,7 4,5 6,2 7 4 11 6 ONO 1029,2 14 0 0,0
24.01.2018 03:00:00 4,1 2,8 3,6 3,5 4,5 6,2 6 3 10 5 OZO 1029,2 17 0 0,0
24.01.2018 02:00:00 3,8 2,3 3,2 3,3 4,6 6,2 5 3 8 4 O 1029,7 22 0 0,0
24.01.2018 01:00:00 3,3 2,2 2,6 3,0 4,7 6,2 5 3 9 5 ZZO 1029,9 14 0 0,0
24.01.2018 00:00:00 3,1 2,1 1,5 2,8 4,9 6,2 4 2 6 4 ONO 1030,0 19 0 0,0
23.01.2018 23:00:00 3,3 1,8 0,4 3,1 5,1 6,2 4 2 9 5 Z 1029,5 29 0 0,0
23.01.2018 22:00:00 3,5 2,1 1,0 3,7 5,3 6,2 4 2 8 4 ZZW 1029,6 22 0 0,0
23.01.2018 21:00:00 4,2 2,7 2,2 4,2 5,5 6,2 3 2 8 4 ZW 1029,3 26 0 0,0
23.01.2018 20:00:00 4,6 2,7 1,7 4,8 5,6 6,2 4 2 9 5 ZW 1029,0 34 0 0,0
23.01.2018 19:00:00 6,0 2,9 4,3 5,5 5,6 6,2 4 2 6 4 WZW 1028,6 39 0 0,0
23.01.2018 18:00:00 6,5 2,7 5,5 5,8 5,6 6,2 5 3 10 5 WZW 1028,6 58 0 0,0
23.01.2018 17:00:00 6,8 2,9 6,1 6,2 5,6 6,2 5 3 15 8 WZW 1028,3 59 0 0,0
23.01.2018 16:00:00 7,1 2,8 6,9 6,5 5,5 6,1 8 4 18 10 ZW 1028,2 56 0 0,0
23.01.2018 15:00:00 7,1 2,8 7,3 6,7 5,3 6,1 11 6 18 10 ZW 1028,1 54 0 0,0
23.01.2018 14:00:00 7,1 3,5 7,5 6,6 5,1 6,1 6 4 11 6 ZW 1028,3 48 0 0,0
23.01.2018 13:00:00 6,3 4,2 6,7 6,0 4,9 6,1 4 2 7 4 ONO 1028,9 39 0 0,0
23.01.2018 12:00:00 6,0 4,0 6,3 5,3 4,8 6,1 5 3 9 5 ONO 1029,0 35 0 0,0
23.01.2018 11:00:00 5,6 4,0 5,7 4,7 4,7 6,1 5 3 7 4 ONO 1028,9 37 0 0,0
23.01.2018 10:00:00 4,6 3,2 4,1 3,9 4,8 6,1 3 2 6 3 ONO 1028,7 41 0 0,0
23.01.2018 09:00:00 4,1 2,8 3,1 3,4 5,0 6,1 4 2 8 4 WZW 1028,2 55 0 0,0
23.01.2018 08:00:00 2,9 1,8 0,6 3,5 5,1 6,1 4 2 11 6 ZZW 1027,9 53 0 0,0
23.01.2018 07:00:00 4,3 2,2 2,5 4,2 5,3 6,1 7 4 10 6 WNW 1026,7 70 0 0,0
23.01.2018 06:00:00 4,8 3,0 4,0 4,8 5,3 6,1 6 3 16 9 WNW 1026,2 63 0 0,0
23.01.2018 05:00:00 4,9 3,0 4,2 5,0 5,4 6,1 9 5 24 13 NW 1025,2 65 0 0,0
23.01.2018 04:00:00 5,4 3,6 4,6 5,3 5,4 6,0 9 5 21 11 NW 1024,3 47 0 0,8
23.01.2018 03:00:00 6,2 4,8 5,6 5,5 5,5 6,0 6 3 13 7 WNW 1023,1 43 0 0,0
23.01.2018 02:00:00 6,6 5,4 5,9 5,5 5,5 6,0 6 3 19 11 WNW 1022,0 56 0 0,0
23.01.2018 01:00:00 7,0 5,8 5,9 5,7 5,5 6,0 10 5 19 10 WNW 1021,0 70 0 0,4
23.01.2018 00:00:00 7,5 5,8 6,4 5,8 5,6 6,0 8 5 11 6 W 1020,6 51 0 0,0
22.01.2018 23:00:00 7,3 5,7 6,4 5,9 5,6 6,0 7 4 16 9 W 1019,2 70 0 0,0
22.01.2018 22:00:00 7,2 6,2 6,6 6,1 5,6 6,0 7 4 16 9 W 1018,0 20 0 0,0
22.01.2018 21:00:00 7,6 6,4 7,0 6,4 5,5 6,0 6 4 26 14 WNW 1016,3 41 0 1,6
22.01.2018 20:00:00 8,8 7,6 8,1 6,6 5,4 6,1 10 5 34 18 WNW 1013,8 8 0 0,8
22.01.2018 19:00:00 9,1 7,6 8,1 6,5 5,3 6,1 19 10 33 18 W 1012,0 16 0 1,6
22.01.2018 18:00:00 8,6 7,6 8,0 6,3 5,1 6,1 15 8 39 21 W 1011,6 4,0 0 3,8
22.01.2018 17:00:00 8,5 7,1 7,7 6,1 5,0 6,1 22 12 39 21 WZW 1010,7 9 0 1,0
22.01.2018 16:00:00 8,2 6,6 7,3 6,0 4,8 6,1 15 8 31 17 W 1010,2 9 0 1,0
22.01.2018 15:00:00 7,5 6,7 7,2 6,0 4,7 6,1 6 3 17 9 WZW 1010,3 14 0 1,8
22.01.2018 14:00:00 8,0 6,2 7,4 6,0 4,4 6,1 13 7 33 18 WZW 1010,7 17 0 0,8
22.01.2018 13:00:00 8,3 6,4 7,5 5,8 4,2 6,1 19 10 47 25 ZW 1011,7 16 0 0,3
22.01.2018 12:00:00 8,6 6,6 7,6 5,6 4,0 6,1 31 17 53 28 WZW 1012,2 18 0 0,1
22.01.2018 11:00:00 8,6 6,6 8,1 5,2 3,7 6,1 27 15 52 28 WZW 1012,1 70 0 0,0
22.01.2018 10:00:00 8,0 6,7 7,4 4,6 3,5 6,1 27 15 55 30 WZW 1011,7 20 0 0,1
22.01.2018 09:00:00 7,6 6,4 6,9 4,0 3,3 6,1 23 12 44 24 WZW 1012,3 13 0 0,0
22.01.2018 08:00:00 7,3 6,2 6,4 3,2 3,2 6,1 16 8 29 16 W 1012,3 15 0 0,1
22.01.2018 07:00:00 5,6 4,8 5,0 2,6 3,1 6,1 10 5 20 11 W 1012,6 27 0 0,1
22.01.2018 06:00:00 2,8 2,5 2,6 2,1 3,1 6,1 4 2 10 5 ZZW 1013,2 6 0 0,3
22.01.2018 05:00:00 1,5 1,0 1,5 2,0 3,1 6,1 5 3 9 5 Z 1013,6 6 0 3,3
22.01.2018 04:00:00 1,3 0,7 1,2 1,8 3,3 6,2 4 2 10 5 OZO 1014,0 3,6 0 3,0
22.01.2018 03:00:00 0,9 0,3 0,8 1,6 3,4 6,2 4 2 8 4 ZO 1014,6 4,6 0 2,3
22.01.2018 02:00:00 0,6 0,1 0,1 1,4 3,6 6,2 3 1 10 5 ZO 1015,5 5 0 1,1
22.01.2018 01:00:00 0,4 -0,2 0,0 1,7 3,8 6,2 4 2 7 4 ZZO 1016,6 3,6 0 0,5
22.01.2018 00:00:00 0,4 -0,4 0,0 2,2 3,9 6,2 4 2 7 4 ZZO 1017,9 3,2 0 0,7
21.01.2018 23:00:00 1,5 -0,2 1,2 2,7 4,0 6,2 7 4 11 6 Z 1018,9 13 0 0,1
21.01.2018 22:00:00 1,9 -0,6 1,5 2,8 4,1 6,2 8 5 21 11 ZZW 1019,6 19 0 0,0
21.01.2018 21:00:00 2,7 -2,1 2,3 3,0 4,1 6,2 6 4 15 8 Z 1019,9 70 0 0,0
21.01.2018 20:00:00 2,6 -2,1 1,7 3,1 4,2 6,2 3 2 6 3 ZZO 1020,2 70 0 0,0
21.01.2018 19:00:00 2,5 -2,6 1,6 3,3 4,3 6,2 4 2 6 3 Z 1020,6 36 0 0,0
21.01.2018 18:00:00 2,7 -3,1 1,7 3,6 4,4 6,2 0 0 3 2 N 1020,6 70 0 0,0
21.01.2018 17:00:00 3,2 -3,6 2,7 4,0 4,4 6,2 2 1 10 6 NNW 1020,3 70 0 0,0
21.01.2018 16:00:00 3,5 -3,5 3,5 4,4 4,4 6,2 9 5 16 9 W 1020,1 70 0 0,0
21.01.2018 15:00:00 3,6 -3,5 3,8 4,5 4,3 6,2 9 5 23 13 WNW 1019,5 70 0 0,0
21.01.2018 14:00:00 3,6 -3,7 3,9 4,4 4,3 6,2 13 7 24 13 NW 1018,9 70 0 0,0
21.01.2018 13:00:00 3,9 -2,9 3,9 4,8 4,1 6,2 5 3 23 13 NW 1018,4 70 2 0,0
21.01.2018 12:00:00 4,5 -2,8 5,9 4,9 4,0 6,2 16 8 28 15 WNW 1017,8 70 40 0,0
21.01.2018 11:00:00 3,7 -2,0 3,9 3,7 3,9 6,2 14 8 31 17 NW 1016,8 70 25 0,0
21.01.2018 10:00:00 3,2 -0,9 2,6 3,4 3,9 6,2 13 7 26 14 NW 1015,6 70 0 0,0
21.01.2018 09:00:00 3,2 1,0 2,5 3,2 4,0 6,2 12 7 26 14 WNW 1014,0 70 0 0,0
21.01.2018 08:00:00 4,0 1,6 3,4 3,3 4,0 6,2 9 5 24 13 WNW 1011,9 42 0 0,0
21.01.2018 07:00:00 4,1 1,5 3,5 3,2 4,0 6,2 10 5 15 8 W 1010,3 70 0 0,0
21.01.2018 06:00:00 4,1 1,8 3,1 3,3 4,1 6,2 5 3 19 11 W 1009,2 70 0 0,0
21.01.2018 05:00:00 3,9 1,2 3,0 3,3 4,1 6,2 7 4 31 17 WZW 1008,1 70 0 0,0
21.01.2018 04:00:00 4,4 1,2 3,6 3,8 4,1 6,2 14 8 38 21 WNW 1006,5 70 0 0,0
21.01.2018 03:00:00 5,3 3,2 4,5 4,1 4,1 6,2 15 8 28 15 N 1004,5 41 0 0,0
21.01.2018 02:00:00 6,0 4,2 4,8 4,1 4,0 6,2 15 8 34 19 WNW 1002,2 70 0 0,4
21.01.2018 01:00:00 5,8 4,8 5,3 4,0 4,0 6,2 10 5 21 11 WNW 1001,0 16 0 0,1
21.01.2018 00:00:00 5,5 4,2 4,9 3,8 3,9 6,2 12 7 32 18 W 1000,0 70 0 0,1
20.01.2018 23:00:00 5,3 3,8 4,6 3,6 3,9 6,2 17 9 37 20 W 999,6 70 0 0,3
20.01.2018 22:00:00 4,9 3,3 4,2 3,3 3,8 6,2 19 10 51 28 W 1000,1 70 0 0,4
20.01.2018 21:00:00 4,4 2,8 3,6 3,0 3,9 6,2 19 10 42 23 W 1000,5 22 0 0,4
20.01.2018 20:00:00 2,5 1,2 2,0 2,6 4,0 6,2 14 8 28 15 W 1000,8 15 0 1,1
20.01.2018 19:00:00 1,1 0,1 0,3 3,1 4,1 6,2 3 2 22 12 ZW 1001,3 2,5 0 1,1
20.01.2018 18:00:00 2,5 0,4 1,9 3,7 4,2 6,2 8 4 20 11 WZW 1001,7 11 0 0,2
20.01.2018 17:00:00 4,1 -1,0 3,3 4,1 4,1 6,2 14 7 24 13 WZW 1002,6 30 0 0,0
20.01.2018 16:00:00 5,4 -1,6 5,2 4,5 4,0 6,2 1 1 6 4 WZW 1003,9 70 0 0,0
20.01.2018 15:00:00 5,1 -0,8 5,0 4,7 3,8 6,2 3 1 7 4 Z 1005,6 70 0 0,0
20.01.2018 14:00:00 4,6 0,0 4,9 4,6 3,6 6,2 5 3 12 6 ONO 1007,3 70 0 0,0
20.01.2018 13:00:00 4,4 -0,7 5,1 4,3 3,4 6,2 4 2 12 6 ZO 1009,8 70 14 0,0
20.01.2018 12:00:00 3,5 -0,1 4,3 3,3 3,3 6,2 6 3 15 8 OZO 1012,4 70 0 0,0
20.01.2018 11:00:00 2,8 -0,5 2,8 2,5 3,2 6,2 7 4 21 12 ZW 1014,0 70 0 0,0
20.01.2018 10:00:00 1,8 -0,4 1,5 2,0 3,2 6,2 9 5 30 16 ZW 1014,8 27 0 0,0
20.01.2018 09:00:00 1,9 -0,8 1,2 1,8 3,3 6,2 12 6 35 19 WZW 1015,1 70 0 0,2
20.01.2018 08:00:00 2,1 -1,6 1,3 1,8 3,3 6,1 27 15 49 27 WZW 1015,2 37 0 0,0
20.01.2018 07:00:00 2,5 -2,5 1,7 1,8 3,4 6,1 11 6 37 20 ZW 1015,0 70 0 0,0
20.01.2018 06:00:00 2,7 -2,9 2,0 1,8 3,5 6,1 13 7 34 18 ZW 1015,6 70 0 0,0
20.01.2018 05:00:00 2,3 -2,0 1,7 1,8 3,6 6,1 22 12 36 19 ZW 1016,1 70 0 0,0
20.01.2018 04:00:00 1,8 -1,3 1,1 1,9 3,7 6,1 15 8 33 18 W 1016,8 70 0 0,0
20.01.2018 03:00:00 1,9 -1,0 0,8 2,2 3,8 6,1 17 9 30 16 WZW 1017,3 70 0 0,0
20.01.2018 02:00:00 2,4 -0,9 1,6 2,4 4,0 6,1 15 8 34 19 WZW 1017,3 70 0 0,0
20.01.2018 01:00:00 3,1 -1,0 2,5 2,4 4,1 6,1 20 11 36 19 W 1016,9 70 0 0,0
20.01.2018 00:00:00 2,7 -0,8 1,8 2,5 4,2 6,1 16 9 28 15 WZW 1016,2 70 0 0,0
19.01.2018 23:00:00 2,9 0,0 2,0 3,0 4,3 6,1 17 9 37 20 WZW 1015,7 70 0 0,0
19.01.2018 22:00:00 3,0 0,6 2,4 3,4 4,4 6,1 19 10 32 17 W 1015,0 70 0 0,1
19.01.2018 21:00:00 3,2 1,0 2,6 3,5 4,5 6,1 5 3 14 7 Z 1014,4 61 0 0,0
19.01.2018 20:00:00 3,4 0,9 2,8 3,6 4,6 6,1 4 2 18 10 Z 1013,8 58 0 0,0
19.01.2018 19:00:00 3,5 0,6 2,4 3,8 4,6 6,1 8 5 23 13 ZW 1013,8 70 0 0,0
19.01.2018 18:00:00 4,0 0,4 3,4 4,0 4,7 6,1 9 5 16 9 ZZW 1013,9 70 0 0,0
19.01.2018 17:00:00 4,5 -0,4 3,4 4,3 4,8 6,1 9 5 22 12 WZW 1014,0 70 0 0,0
19.01.2018 16:00:00 4,9 -0,8 4,5 4,8 4,8 6,1 14 8 31 17 W 1014,1 70 0 0,0
19.01.2018 15:00:00 5,5 -1,5 5,4 5,0 4,7 6,1 19 10 34 18 ZW 1013,7 70 0 0,0
19.01.2018 14:00:00 5,2 -2,2 5,2 5,6 4,5 6,0 22 12 50 27 W 1013,7 70 45 0,0
19.01.2018 13:00:00 5,4 -1,0 6,6 5,0 4,4 6,0 19 10 41 22 WZW 1014,6 70 52 0,0
19.01.2018 12:00:00 5,1 -0,1 6,1 5,0 4,2 6,0 23 12 40 22 W 1014,9 70 50 0,0
19.01.2018 11:00:00 5,0 0,1 6,4 4,0 4,2 6,0 20 11 41 22 W 1014,6 60 60 0,0
19.01.2018 10:00:00 4,2 0,4 3,4 3,0 4,3 6,0 24 13 41 22 W 1013,8 70 45 0,0
19.01.2018 09:00:00 3,6 1,0 2,1 3,3 4,4 6,0 16 9 32 17 W 1013,5 70 0 0,0
19.01.2018 08:00:00 4,0 1,5 2,8 3,7 4,5 6,0 13 7 34 19 W 1012,4 70 0 0,0
19.01.2018 07:00:00 3,9 1,2 2,8 4,0 4,6 6,1 19 10 58 31 W 1011,0 70 0 2,0
19.01.2018 06:00:00 4,3 2,6 3,6 4,4 4,6 6,1 24 13 48 26 WNW 1010,3 1,4 0 0,8
19.01.2018 05:00:00 5,4 3,0 4,4 4,5 4,6 6,1 19 11 55 30 WZW 1008,9 15 0 0,2
19.01.2018 04:00:00 5,7 2,9 4,5 4,5 4,6 6,1 24 13 50 27 WZW 1008,3 70 0 0,2
19.01.2018 03:00:00 5,7 3,6 4,8 4,6 4,6 6,1 26 14 46 25 WZW 1008,6 22 0 0,7
19.01.2018 02:00:00 5,3 4,1 4,8 4,6 4,6 6,1 16 9 33 18 WNW 1008,4 10 0 1,2
19.01.2018 01:00:00 5,1 4,0 4,7 4,8 4,6 6,1 14 8 31 17 W 1007,9 24 0 1,1
19.01.2018 00:00:00 5,4 4,5 5,1 4,9 4,6 6,1 16 9 43 23 WNW 1007,9 8 0 3,4
18.01.2018 23:00:00 6,5 4,2 5,5 4,9 4,6 6,1 27 14 49 27 W 1007,5 9 0 1,0
18.01.2018 22:00:00 6,2 4,3 5,4 4,9 4,5 6,1 22 12 51 28 W 1008,3 8 0 1,6
18.01.2018 21:00:00 7,0 3,9 5,6 4,9 4,5 6,1 35 19 79 43 W 1008,1 5 0 0,1
18.01.2018 20:00:00 8,0 2,5 7,3 4,8 4,5 6,1 39 21 73 39 WZW 1006,4 70 0 0,0
18.01.2018 19:00:00 7,6 2,4 7,0 4,9 4,4 6,1 40 22 89 48 WZW 1006,7 70 0 0,0
18.01.2018 18:00:00 7,8 2,5 7,0 5,0 4,4 6,1 40 21 80 43 WZW 1006,6 70 0 0,0
18.01.2018 17:00:00 7,6 2,9 6,6 5,2 4,2 6,1 40 22 90 49 WZW 1007,1 70 0 0,0
18.01.2018 16:00:00 7,7 2,5 7,6 5,5 4,1 6,1 37 20 84 46 WZW 1006,9 70 0 0,0
18.01.2018 15:00:00 7,1 2,6 7,1 5,7 3,8 6,1 48 26 87 47 WZW 1007,6 39 12 0,0
18.01.2018 14:00:00 7,2 1,9 8,2 5,7 3,4 6,2 44 24 87 47 WZW 1007,2 26 59 0,0
18.01.2018 13:00:00 6,2 2,1 7,3 4,6 3,2 6,2 45 24 84 45 WZW 1008,8 25 31 0,0
18.01.2018 12:00:00 5,1 1,6 5,2 3,7 3,0 6,2 48 26 79 43 WZW 1009,7 24 11 0,0
18.01.2018 11:00:00 5,0 1,5 4,8 3,0 2,8 6,2 43 23 72 39 WZW 1009,8 33 12 0,0
18.01.2018 10:00:00 3,8 0,9 2,8 2,3 2,8 6,2 26 14 54 29 WZW 1011,2 70 0 0,2
18.01.2018 09:00:00 3,1 1,0 2,2 2,0 2,7 6,2 21 12 47 26 WZW 1011,5 21 0 0,7
18.01.2018 08:00:00 3,0 0,2 1,9 1,8 2,7 6,2 18 10 35 19 WZW 1012,1 52 0 0,2
18.01.2018 07:00:00 2,0 0,3 1,4 1,7 2,7 6,2 22 12 48 26 WZW 1013,3 27 0 0,4
18.01.2018 06:00:00 2,3 0,1 1,5 1,6 2,7 6,2 26 14 46 25 WZW 1014,3 14 0 0,1

tt = temperatuur
td = dauwpunt
tt 5cm = temperatuur 5cm
tt -5cm = temperatuur -5cm
tt -20cm = temperatuur -20cm
tt -100cm = temperatuur -100cm
ff = windsnelheid
fx = windstoten
dd = windrichting
ppp = luchtdruk
vv = zicht
sd = Zonneschijnduur
rr = neerslag

Weerstations in de omgeving